TimeCDT,TemperatureF,Dew PointF,Humidity,Sea Level PressureIn,VisibilityMPH,Wind Direction,Wind SpeedMPH,Gust SpeedMPH,PrecipitationIn,Events,Conditions,WindDirDegrees,DateUTC
12:13 AM,68.0,62.6,83,29.89,10.0,West,3.5,-,N/A,,Clear,260,2013-08-02 05:13:00
12:33 AM,68.0,62.6,83,29.89,10.0,WNW,4.6,-,N/A,,Clear,290,2013-08-02 05:33:00
12:53 AM,66.2,62.6,88,29.88,10.0,West,3.5,-,N/A,,Clear,280,2013-08-02 05:53:00
1:13 AM,66.2,62.6,88,29.89,10.0,West,4.6,-,N/A,,Clear,280,2013-08-02 06:13:00
1:33 AM,66.2,60.8,83,29.90,10.0,West,4.6,-,N/A,,Mostly Cloudy,280,2013-08-02 06:33:00
1:52 AM,66.2,60.8,83,29.90,10.0,West,3.5,-,N/A,,Scattered Clouds,270,2013-08-02 06:52:00
2:13 AM,66.2,59.0,78,29.91,10.0,WNW,4.6,-,N/A,,Clear,290,2013-08-02 07:13:00
2:33 AM,64.4,57.2,77,29.90,10.0,West,3.5,-,N/A,,Clear,270,2013-08-02 07:33:00
2:52 AM,64.4,57.2,77,29.89,10.0,WNW,3.5,-,N/A,,Clear,290,2013-08-02 07:52:00
3:13 AM,64.4,57.2,77,29.90,10.0,WNW,3.5,-,N/A,,Clear,300,2013-08-02 08:13:00
3:33 AM,64.4,57.2,77,29.89,10.0,Calm,Calm,-,N/A,,Clear,0,2013-08-02 08:33:00
3:53 AM,64.4,57.2,77,29.90,10.0,Calm,Calm,-,N/A,,Scattered Clouds,0,2013-08-02 08:53:00
4:13 AM,64.4,57.2,77,29.90,10.0,Calm,Calm,-,N/A,,Scattered Clouds,0,2013-08-02 09:13:00
4:33 AM,64.4,57.2,77,29.89,10.0,Calm,Calm,-,N/A,,Clear,0,2013-08-02 09:33:00
4:53 AM,62.6,57.2,82,29.89,10.0,Calm,Calm,-,N/A,,Clear,0,2013-08-02 09:53:00
5:13 AM,62.6,57.2,82,29.90,10.0,Calm,Calm,-,N/A,,Clear,0,2013-08-02 10:13:00
5:33 AM,62.6,57.2,82,29.91,10.0,Calm,Calm,-,N/A,,Clear,0,2013-08-02 10:33:00
5:53 AM,62.6,57.2,82,29.92,10.0,Calm,Calm,-,N/A,,Clear,0,2013-08-02 10:53:00
6:13 AM,62.6,57.2,82,29.92,10.0,Calm,Calm,-,N/A,,Clear,0,2013-08-02 11:13:00
6:33 AM,62.6,57.2,82,29.93,10.0,Calm,Calm,-,N/A,,Clear,0,2013-08-02 11:33:00
6:53 AM,62.6,57.2,82,29.93,10.0,Calm,Calm,-,N/A,,Scattered Clouds,0,2013-08-02 11:53:00
7:13 AM,64.4,57.2,77,29.94,10.0,Calm,Calm,-,N/A,,Overcast,0,2013-08-02 12:13:00
7:33 AM,64.4,57.2,77,29.94,10.0,Calm,Calm,-,N/A,,Mostly Cloudy,0,2013-08-02 12:33:00
7:53 AM,64.4,57.2,77,29.93,10.0,Calm,Calm,-,N/A,,Scattered Clouds,0,2013-08-02 12:53:00
8:13 AM,66.2,57.2,73,29.93,10.0,NNW,3.5,-,N/A,,Clear,340,2013-08-02 13:13:00
8:33 AM,66.2,57.2,73,29.93,10.0,North,5.8,-,N/A,,Clear,350,2013-08-02 13:33:00
8:53 AM,69.8,57.2,64,29.93,10.0,North,9.2,-,N/A,,Clear,360,2013-08-02 13:53:00
9:13 AM,69.8,57.2,64,29.92,10.0,North,9.2,-,N/A,,Clear,10,2013-08-02 14:13:00
9:33 AM,71.6,55.4,57,29.93,10.0,NNE,5.8,-,N/A,,Clear,20,2013-08-02 14:33:00
9:53 AM,71.6,55.4,57,29.93,10.0,NE,9.2,-,N/A,,Clear,40,2013-08-02 14:53:00
10:13 AM,73.4,55.4,53,29.94,10.0,North,9.2,-,N/A,,Clear,10,2013-08-02 15:13:00
10:33 AM,73.4,55.4,53,29.94,10.0,North,9.2,-,N/A,,Clear,10,2013-08-02 15:33:00
10:53 AM,73.4,53.6,50,29.94,10.0,North,9.2,-,N/A,,Clear,360,2013-08-02 15:53:00
11:13 AM,73.4,48.2,41,29.95,10.0,North,10.4,16.1,N/A,,Clear,10,2013-08-02 16:13:00
11:33 AM,73.4,50.0,44,29.95,10.0,North,6.9,-,N/A,,Clear,350,2013-08-02 16:33:00
11:53 AM,73.4,51.8,47,29.95,10.0,NNE,10.4,-,N/A,,Clear,20,2013-08-02 16:53:00
12:13 PM,75.2,51.8,44,29.95,10.0,NNE,9.2,-,N/A,,Clear,20,2013-08-02 17:13:00
12:33 PM,75.2,51.8,44,29.95,10.0,North,6.9,-,N/A,,Clear,360,2013-08-02 17:33:00
12:53 PM,75.2,48.2,38,29.95,10.0,NE,5.8,-,N/A,,Clear,50,2013-08-02 17:53:00
1:13 PM,77.0,50.0,39,29.96,10.0,North,4.6,-,N/A,,Clear,10,2013-08-02 18:13:00
1:33 PM,77.0,48.2,36,29.97,10.0,North,3.5,-,N/A,,Clear,350,2013-08-02 18:33:00
1:53 PM,75.2,51.8,44,29.98,10.0,NNW,6.9,-,N/A,,Clear,340,2013-08-02 18:53:00
2:13 PM,77.0,51.8,41,29.98,10.0,NNW,5.8,-,N/A,,Clear,340,2013-08-02 19:13:00
2:33 PM,75.2,51.8,44,29.98,10.0,NNW,5.8,-,N/A,,Scattered Clouds,330,2013-08-02 19:33:00
2:53 PM,75.2,53.6,47,29.98,10.0,North,5.8,-,N/A,,Scattered Clouds,350,2013-08-02 19:53:00
3:13 PM,75.2,51.8,44,29.97,10.0,North,6.9,-,N/A,,Clear,350,2013-08-02 20:13:00
3:33 PM,75.2,53.6,47,29.97,10.0,NNW,5.8,-,N/A,,Clear,330,2013-08-02 20:33:00
3:53 PM,73.4,53.6,50,29.98,10.0,NNW,6.9,-,N/A,,Clear,340,2013-08-02 20:53:00
4:13 PM,73.4,53.6,50,29.98,10.0,NNW,5.8,-,N/A,,Scattered Clouds,330,2013-08-02 21:13:00
4:33 PM,73.4,53.6,50,29.98,10.0,NNW,5.8,-,N/A,,Scattered Clouds,340,2013-08-02 21:33:00
4:53 PM,71.6,53.6,53,29.98,10.0,NW,4.6,-,N/A,,Scattered Clouds,320,2013-08-02 21:53:00
5:13 PM,71.6,53.6,53,29.99,10.0,NNW,5.8,-,N/A,,Scattered Clouds,330,2013-08-02 22:13:00
5:33 PM,71.6,53.6,53,29.98,10.0,Calm,Calm,-,N/A,Rain,Light Rain,0,2013-08-02 22:33:00
5:53 PM,71.6,55.4,57,29.98,10.0,NW,3.5,-,N/A,Rain,Light Rain,320,2013-08-02 22:53:00
6:13 PM,69.8,55.4,60,29.98,10.0,NNW,3.5,-,N/A,Rain,Light Rain,330,2013-08-02 23:13:00
6:33 PM,69.8,55.4,60,29.98,10.0,Calm,Calm,-,N/A,,Scattered Clouds,0,2013-08-02 23:33:00
6:53 PM,69.8,57.2,64,29.99,10.0,Calm,Calm,-,N/A,,Mostly Cloudy,0,2013-08-02 23:53:00
7:13 PM,69.8,57.2,64,29.99,10.0,NNW,3.5,-,N/A,,Mostly Cloudy,330,2013-08-03 00:13:00
7:33 PM,69.8,57.2,64,30.00,10.0,NNW,3.5,-,N/A,,Overcast,330,2013-08-03 00:33:00
7:53 PM,69.8,57.2,64,29.99,10.0,Calm,Calm,-,N/A,,Scattered Clouds,0,2013-08-03 00:53:00
8:13 PM,68.0,57.2,68,30.00,10.0,Calm,Calm,-,N/A,,Scattered Clouds,0,2013-08-03 01:13:00
8:33 PM,68.0,57.2,68,30.00,10.0,Calm,Calm,-,N/A,,Clear,0,2013-08-03 01:33:00
8:53 PM,66.2,57.2,73,30.01,10.0,Calm,Calm,-,N/A,,Clear,0,2013-08-03 01:53:00
9:13 PM,64.4,57.2,77,30.02,10.0,Calm,Calm,-,N/A,,Clear,0,2013-08-03 02:13:00
9:33 PM,62.6,57.2,82,30.03,10.0,Calm,Calm,-,N/A,,Clear,0,2013-08-03 02:33:00
9:53 PM,62.6,57.2,82,30.04,10.0,Calm,Calm,-,N/A,,Clear,0,2013-08-03 02:53:00
10:13 PM,62.6,55.4,77,30.05,10.0,Calm,Calm,-,N/A,,Clear,0,2013-08-03 03:13:00
10:33 PM,59.0,55.4,88,30.06,10.0,Calm,Calm,-,N/A,,Clear,0,2013-08-03 03:33:00
10:53 PM,57.2,55.4,94,30.06,10.0,Calm,Calm,-,N/A,,Clear,0,2013-08-03 03:53:00
11:12 PM,59.0,55.4,88,30.06,10.0,Calm,Calm,-,N/A,,Clear,0,2013-08-03 04:12:00
11:33 PM,57.2,55.4,94,30.06,10.0,Calm,Calm,-,N/A,,Clear,0,2013-08-03 04:33:00
11:53 PM,57.2,55.4,94,30.07,10.0,Calm,Calm,-,N/A,,Clear,0,2013-08-03 04:53:00